Погода на Станции Каменный Ключ

Россия / Кемеровская область (Кузбасс)     54°05′59″N   86°08′04″E
темп.,
°C
ветер,
м/с
пор.,
м/с
влажн.,
%
обл.,
%
осадки,
мм/ч
давл.,
гПа
погр.,
м
24 мая, вт
вт2401:00+8ююв11680 0.0 102411
04:00+8св11680 0.0 102311
07:00+11св26610 0.0 1022175
10:00+16св45410 0.0 1020557
13:00+21св453152 0.0 1018931
16:00+22св462614 0.0 10171238
19:00+20с3838100 0.0 1016413
22:00+15с385694 0.0 1015134
25 мая, ср
ср2501:00+12с236298 0.0 101548
04:00+11с236739 0.0 101535
07:00+13с236498 0.0 101597
10:00+19ссв2245100 0.0 1014426
13:00+22ссв3340100 0.0 1013787
16:00+22ссв3645100 0.0 1013808
19:00+22ссв5952100 0.0 1012762
22:00+18ссв513575 0.0 1013472
26 мая, чт
чт2601:00+15ссв4116438 0.0 1013251
04:00+13ссв376335 0.0 1013132
07:00+15ссв37615 0.0 1013169
10:00+21св46450 0.0 1013604
13:00+25св45371 0.0 10121314
16:00+26ссв44350 0.0 10111690
19:00+23с58490 0.0 1010741
22:00+16с411561 0.0 1011355
27 мая, пт
пт2701:00+13с39637 0.0 1010181
04:00+11с246776 0.0 100986
07:00+13с236246 0.0 1009126
10:00+19с22495 0.0 1008527
13:00+22с34410 0.0 10081163
16:00+23с56310 0.0 10081514
19:00+20с57400 0.0 10091086
22:00+14с411510 0.0 1010330
28 мая, сб
сб2801:00+10ссв38610 0.0 1011137
04:00+8с22770 0.0 101231
07:00+11ссв2368100 0.0 1011106
10:00+17всв225247 0.0 1010562
13:00+22св213597 0.0 10101185
16:00+24ссв332845 0.0 10091458
19:00+21с344295 0.0 1009321
22:00+15ссз234999 0.0 101054